| time (UTC) | temp F | wind direction | speed knots | gust knots | rain 1hr in | rain 24hr in | rain mn in | humidity % | barometer mb |
| 20260506123012 | 46 | 270 | 0.0 | 0.9 | 0.00 | 1.33 | 0.22 | 95 | 1010.0 |
| 20260506121509 | 46 | 274 | 0.0 | 0.9 | 0.00 | 1.33 | 0.22 | 95 | 1010.1 |
| 20260506120014 | 46 | 274 | 0.0 | 0.9 | 0.00 | 1.33 | 0.22 | 95 | 1010.1 |
| 20260506114531 | 45 | 290 | 0.0 | 0.9 | 0.00 | 1.33 | 0.22 | 95 | 1010.1 |
| 20260506113021 | 45 | 255 | 0.0 | 0.9 | 0.00 | 1.33 | 0.22 | 95 | 1010.0 |
| 20260506111517 | 45 | 198 | 0.0 | 0.0 | 0.00 | 1.33 | 0.22 | 95 | 1009.4 |
| 20260506110012 | 45 | 198 | 0.0 | 0.0 | 0.00 | 1.33 | 0.22 | 95 | 1009.4 |
| 20260506104512 | 45 | 211 | 0.0 | 0.9 | 0.00 | 1.33 | 0.22 | 95 | 1008.9 |
| 20260506103018 | 45 | 200 | 0.0 | 0.9 | 0.00 | 1.33 | 0.22 | 95 | 1008.5 |
| 20260506101524 | 45 | 280 | 0.0 | 1.7 | 0.00 | 1.33 | 0.22 | 95 | 1009.3 |
| 20260506100025 | 45 | 105 | 0.0 | 0.9 | 0.01 | 1.33 | 0.22 | 95 | 1008.7 |
| 20260506094519 | 45 | 105 | 0.0 | 0.9 | 0.01 | 1.33 | 0.22 | 95 | 1008.2 |
| 20260506093014 | 45 | 103 | 0.0 | 0.9 | 0.01 | 1.33 | 0.22 | 95 | 1008.4 |
| 20260506091520 | 45 | 319 | 0.0 | 2.6 | 0.01 | 1.33 | 0.22 | 95 | 1009.0 |
| 20260506090024 | 46 | 300 | 0.9 | 3.5 | 0.02 | 1.32 | 0.21 | 95 | 1009.3 |
| 20260506084526 | 46 | 279 | 0.0 | 0.9 | 0.05 | 1.32 | 0.21 | 95 | 1008.8 |
| 20260506083028 | 46 | 267 | 0.0 | 0.9 | 0.06 | 1.32 | 0.21 | 95 | 1008.6 |
| 20260506081517 | 46 | 344 | 0.0 | 0.0 | 0.07 | 1.32 | 0.21 | 95 | 1008.7 |
| 20260506073026 | 46 | 257 | 0.0 | 1.7 | 0.06 | 1.26 | 0.15 | 95 | 1009.0 |
| 20260506071528 | 46 | 330 | 0.0 | 0.9 | 0.06 | 1.25 | 0.14 | 95 | 1008.8 |
| 20260506061510 | 45 | 37 | 0.0 | 0.0 | 0.04 | 1.19 | 0.08 | 95 | 1008.9 |
| 20260506044526 | 46 | 38 | 0.0 | 0.9 | 0.03 | 1.13 | 0.02 | 94 | 1009.1 |
| 20260506043020 | 46 | 38 | 0.0 | 2.6 | 0.03 | 1.12 | 0.01 | 94 | 1009.3 |
| 20260506041516 | 47 | 105 | 0.0 | 0.9 | 0.06 | 1.12 | 0.01 | 94 | 1009.4 |
| 20260506040008 | 47 | 274 | 0.0 | 0.9 | 0.08 | 1.11 | 0.00 | 95 | 1009.5 |
| 20260506034511 | 47 | 275 | 0.0 | 0.9 | 0.11 | 1.10 | 1.10 | 94 | 1009.7 |
| 20260506033012 | 47 | 203 | 0.0 | 1.7 | 0.14 | 1.09 | 1.09 | 94 | 1010.0 |
| 20260506031530 | 48 | 10 | 0.0 | 0.9 | 0.17 | 1.05 | 1.05 | 95 | 1009.9 |
| 20260506030045 | 48 | 3 | 0.0 | 0.9 | 0.19 | 1.03 | 1.03 | 95 | 1009.9 |
| 20260506024528 | 49 | 3 | 0.0 | 0.9 | 0.20 | 0.99 | 0.99 | 95 | 1009.9 |
| 20260506023012 | 49 | 275 | 0.0 | 0.9 | 0.19 | 0.95 | 0.95 | 95 | 1009.9 |
| 20260506021515 | 49 | 37 | 0.0 | 0.0 | 0.16 | 0.89 | 0.89 | 95 | 1009.3 |
| 20260506020012 | 49 | 37 | 0.0 | 0.9 | 0.11 | 0.84 | 0.84 | 95 | 1009.2 |
| 20260506014526 | 49 | 37 | 0.0 | 0.9 | 0.07 | 0.79 | 0.79 | 95 | 1009.3 |
| 20260506013024 | 49 | 27 | 0.0 | 0.9 | 0.05 | 0.76 | 0.76 | 95 | 1009.2 |
| 20260506011512 | 49 | 9 | 0.0 | 0.0 | 0.03 | 0.73 | 0.73 | 95 | 1009.3 |
| 20260506010018 | 49 | 226 | 0.0 | 0.9 | 0.05 | 0.73 | 0.73 | 94 | 1009.3 |
| 20260506004532 | 49 | 264 | 0.0 | 0.9 | 0.08 | 0.72 | 0.72 | 94 | 1009.1 |
| 20260506003010 | 49 | 289 | 0.0 | 1.7 | 0.07 | 0.71 | 0.71 | 94 | 1009.1 |
| 20260506001509 | 49 | 87 | 0.0 | 1.7 | 0.06 | 0.70 | 0.70 | 94 | 1008.9 |
| 20260506000010 | 49 | 77 | 0.0 | 2.6 | 0.05 | 0.68 | 0.68 | 94 | 1008.3 |
| 20260505234518 | 49 | 52 | 0.0 | 1.7 | 0.03 | 0.64 | 0.64 | 94 | 1008.5 |
| 20260505233021 | 50 | 124 | 0.0 | 2.6 | 0.07 | 0.64 | 0.64 | 94 | 1008.6 |
| 20260505231525 | 50 | 20 | 0.0 | 1.7 | 0.15 | 0.64 | 0.64 | 94 | 1008.6 |
| 20260505230014 | 50 | 64 | 0.0 | 1.7 | 0.16 | 0.63 | 0.63 | 93 | 1009.2 |
| 20260505224510 | 51 | 227 | 0.0 | 5.2 | 0.17 | 0.61 | 0.61 | 93 | 1009.4 |
| 20260505223008 | 51 | 248 | 0.0 | 6.1 | 0.17 | 0.57 | 0.57 | 93 | 1009.2 |
| 20260505221524 | 52 | 46 | 0.0 | 4.3 | 0.16 | 0.49 | 0.49 | 93 | 1008.8 |
| 20260505220030 | 53 | 262 | 0.0 | 8.7 | 0.16 | 0.47 | 0.47 | 93 | 1008.5 |
| 20260505214514 | 53 | 233 | 0.0 | 0.9 | 0.17 | 0.44 | 0.44 | 93 | 1008.2 |
| 20260505213016 | 54 | 95 | 0.0 | 1.7 | 0.17 | 0.40 | 0.40 | 92 | 1008.3 |
| 20260505211516 | 56 | 115 | 0.9 | 5.2 | 0.15 | 0.33 | 0.33 | 92 | 1008.3 |
| 20260505210005 | 56 | 232 | 0.0 | 2.6 | 0.17 | 0.31 | 0.31 | 93 | 1008.3 |
| 20260505204513 | 56 | 298 | 1.7 | 4.3 | 0.17 | 0.27 | 0.27 | 93 | 1008.5 |
| 20260505203021 | 56 | 260 | 3.5 | 7.8 | 0.16 | 0.23 | 0.23 | 92 | 1008.4 |
| 20260505201519 | 57 | 301 | 0.9 | 4.3 | 0.15 | 0.18 | 0.18 | 92 | 1008.4 |
| 20260505200022 | 57 | 280 | 0.9 | 2.6 | 0.13 | 0.14 | 0.14 | 91 | 1008.5 |
| 20260505194507 | 57 | 268 | 1.7 | 3.5 | 0.10 | 0.10 | 0.10 | 91 | 1008.5 |
| 20260505193009 | 58 | 278 | 0.9 | 7.0 | 0.07 | 0.07 | 0.07 | 89 | 1008.5 |
| 20260505191513 | 58 | 288 | 1.7 | 4.3 | 0.03 | 0.03 | 0.03 | 88 | 1008.6 |
| 20260505190014 | 59 | 330 | 1.7 | 6.1 | 0.01 | 0.01 | 0.01 | 85 | 1008.5 |
| 20260505184527 | 60 | 267 | 4.3 | 8.7 | 0.00 | 0.00 | 0.00 | 80 | 1008.6 |
| 20260505183026 | 62 | 287 | 5.2 | 8.7 | 0.00 | 0.00 | 0.00 | 75 | 1008.5 |
| 20260505181511 | 63 | 217 | 5.2 | 12.2 | 0.00 | 0.00 | 0.00 | 72 | 1008.3 |
| 20260505180026 | 64 | 288 | 7.8 | 13.0 | 0.00 | 0.00 | 0.00 | 70 | 1008.2 |
| 20260505174514 | 65 | 274 | 5.2 | 9.6 | 0.00 | 0.00 | 0.00 | 70 | 1008.1 |
| 20260505173024 | 65 | 249 | 5.2 | 11.3 | 0.00 | 0.00 | 0.00 | 70 | 1008.2 |
| 20260505171527 | 64 | 252 | 7.0 | 13.0 | 0.00 | 0.00 | 0.00 | 70 | 1008.1 |
| 20260505170017 | 64 | 283 | 7.8 | 18.2 | 0.00 | 0.00 | 0.00 | 69 | 1008.3 |
| 20260505164517 | 64 | 272 | 8.7 | 15.6 | 0.00 | 0.00 | 0.00 | 69 | 1008.2 |
| 20260505163020 | 65 | 272 | 8.7 | 14.8 | 0.00 | 0.00 | 0.00 | 67 | 1008.0 |
| 20260505161517 | 65 | 274 | 9.6 | 17.4 | 0.00 | 0.00 | 0.00 | 66 | 1008.0 |
| 20260505153022 | 68 | 265 | 7.8 | 19.1 | 0.00 | 0.00 | 0.00 | 62 | 1007.3 |
| 20260505151503 | 67 | 271 | 6.1 | 12.2 | 0.00 | 0.00 | 0.00 | 62 | 1007.0 |
| 20260505124506 | 62 | 240 | 4.3 | 12.2 | 0.00 | 0.00 | 0.00 | 73 | 1006.7 |